Location: Clanezzo
(45.7500°N, 9.6000°E)
Time: 13:51:42
(UTC+00:00)

AO-92 - Pass Details

Date: 30 June 2022
Orbit: 470 x 481 km, 97.4° (Epoch: 07 August)

Event Time Altitude Azimuth Distance (km) Brightness Sun altitude
Exits shadow 21:44:44 30° 208° (SSW) 888 ? -17.4°
Maximum altitude 21:46:04 45° 261° (W) 665 ? -17.5°
Drops below altitude 10° 21:49:31 10° 335° (NNW) 1,667 ? -17.8°
Sets 21:51:40 0° 342° (NNW) 2,554 ? -17.9°
